Location: Sedan
(39.2354°N, 78.5718°W)
Time: 00:24:18
(UTC+00:00)

Envisat - Pass Details

Date: 11 December 2021
Orbit: 764 x 766 km, 98.2° (Epoch: 21 January)

Event Time Altitude Azimuth Distance (km) Brightness Sun altitude
Rises 22:26:55 0° 202° (SSW) 3,217 7.0 -7.0°
Reaches altitude 10° 22:29:44 10° 218° (SW) 2,297 6.6 -7.5°
Maximum altitude 22:33:31 21° 267° (W) 1,669 5.8 -8.1°
Drops below altitude 10° 22:37:20 10° 315° (NW) 2,309 5.8 -8.8°
Sets 22:40:12 0° 332° (NNW) 3,240 6.3 -9.3°
